Weather History for KSUN - March, 2014

Change the Weather History Date:

Wednesday, March 5, 2014

  Actual Average Record
Temperature  
Mean Temperature 40 °F -  
Max Temperature 48 °F 40 °F 53 °F (2001)
Min Temperature 32 °F 18 °F 5 °F (1997)
Degree Days  
Heating Degree Days 25    
Moisture  
Dew Point 30 °F    
Average Humidity 76    
Maximum Humidity 93    
Minimum Humidity 50    
Precipitation  
Precipitation 0.00 in - - ()
Sea Level Pressure  
Sea Level Pressure 30.06 in    
Wind  
Wind Speed 6 mph (NW)    
Max Wind Speed 10 mph    
Max Gust Speed -    
Visibility 9 miles    
Events Rain    
Averages and records for this station are not official NWS values.
T = Trace of Precipitation, MM = Missing Value Source: NWS Daily Summary

Daily Weather History Graph

Daily Weather History Graph

Search for Another Location

Airport or City:

Trip Planner

Search our weather history database for the weather conditions in past years. The results will help you decide how hot, cold, wet, or windy it might be!

Date:

Astronomy

Mar. 05, 2014 Rise Set
Actual Time 7:06 AM MST 6:31 PM MST
Civil Twilight 6:38 AM MST 6:59 PM MST
Nautical Twilight 6:05 AM MST 7:32 PM MST
Astronomical Twilight 5:31 AM MST 8:06 PM MST
Moon 9:26 AM MST (3/5) 11:53 PM MST (3/5)
Length of Visible Light 12h 21m
Length of Day
11h 24m
Waxing Crescent, 24% of the Moon is Illuminated
Mar 5
Waxing Crescent
Mar 8
First Quarter
Mar 16
Full
Mar 23
Last Quarter
Mar 30
New

Hourly Weather History & Observations

Time (MST) Temp. Windchill Dew Point Humidity Pressure Visibility Wind Dir Wind Speed Gust Speed Precip Events Conditions
12:15 AM 32.0 °F 26.4 °F 26.6 °F 80% 30.10 in 10.0 mi NW 5.8 mph - N/A   Clear
12:35 AM 32.0 °F 27.5 °F 26.6 °F 80% 30.11 in 10.0 mi NW 4.6 mph - N/A   Clear
12:55 AM 32.0 °F 25.6 °F 28.4 °F 87% 30.10 in 10.0 mi NNW 6.9 mph - N/A   Clear
1:20 AM 32.0 °F 24.8 °F 26.6 °F 80% 30.10 in 10.0 mi NW 8.1 mph - N/A   Clear
1:35 AM 32.0 °F 25.6 °F 26.6 °F 80% 30.10 in 10.0 mi NW 6.9 mph - N/A   Clear
1:55 AM 32.0 °F 25.6 °F 26.6 °F 80% 30.11 in 10.0 mi North 6.9 mph - N/A   Scattered Clouds
2:15 AM 32.0 °F 26.4 °F 28.4 °F 87% 30.11 in 10.0 mi NNW 5.8 mph - N/A   Overcast
2:35 AM 32.0 °F 26.4 °F 26.6 °F 80% 30.12 in 10.0 mi NW 5.8 mph - N/A   Overcast
2:55 AM 32.0 °F 24.8 °F 26.6 °F 80% 30.11 in 10.0 mi NW 8.1 mph - N/A   Overcast
3:15 AM 32.0 °F 24.2 °F 26.6 °F 80% 30.11 in 10.0 mi NW 9.2 mph - N/A   Scattered Clouds
3:35 AM 32.0 °F 24.8 °F 26.6 °F 80% 30.10 in 10.0 mi NW 8.1 mph - N/A   Clear
3:55 AM 32.0 °F 24.8 °F 26.6 °F 80% 30.10 in 10.0 mi NW 8.1 mph - N/A   Clear
4:15 AM 32.0 °F 24.8 °F 26.6 °F 80% 30.10 in 10.0 mi NW 8.1 mph - N/A   Clear
4:35 AM 32.0 °F 23.6 °F 26.6 °F 80% 30.10 in 10.0 mi WNW 10.4 mph - N/A   Scattered Clouds
4:55 AM 32.0 °F 24.8 °F 26.6 °F 80% 30.10 in 10.0 mi NNW 8.1 mph - N/A   Scattered Clouds
5:15 AM 32.0 °F 24.8 °F 26.6 °F 80% 30.10 in 10.0 mi NW 8.1 mph - N/A   Clear
5:35 AM 32.0 °F 25.6 °F 26.6 °F 80% 30.10 in 10.0 mi NW 6.9 mph - N/A   Clear
6:00 AM 32.0 °F 23.6 °F 26.6 °F 80% 30.11 in 10.0 mi NW 10.4 mph - N/A   Scattered Clouds
6:47 AM 32.0 °F 26.4 °F 26.6 °F 80% 30.12 in 10.0 mi North 5.8 mph - N/A   Mostly Cloudy
7:48 AM 32.0 °F 25.6 °F 26.6 °F 80% 30.11 in 10.0 mi NW 6.9 mph - N/A   Scattered Clouds
8:47 AM 35.6 °F 29.2 °F 26.6 °F 70% 30.10 in 10.0 mi WNW 8.1 mph - N/A   Mostly Cloudy
9:47 AM 37.4 °F 30.3 °F 26.6 °F 65% 30.10 in 10.0 mi WNW 10.4 mph - N/A   Scattered Clouds
10:47 AM 42.8 °F 40.1 °F 28.4 °F 57% 30.09 in 10.0 mi West 4.6 mph - N/A   Mostly Cloudy
11:47 AM 44.6 °F 39.2 °F 33.8 °F 66% 30.08 in 10.0 mi ESE 10.4 mph - N/A   Overcast
12:47 PM 46.4 °F 43.5 °F 33.8 °F 62% 30.07 in 10.0 mi East 5.8 mph - N/A   Mostly Cloudy
1:50 PM 48.2 °F - 33.8 °F 58% 30.04 in 10.0 mi SSW 6.9 mph - N/A   Scattered Clouds
2:47 PM 48.2 °F - 30.2 °F 50% 30.02 in 10.0 mi South 9.2 mph - N/A   Overcast
3:47 PM 48.2 °F - 30.2 °F 50% 30.02 in 10.0 mi WSW 8.1 mph - N/A   Overcast
4:47 PM 46.4 °F - 32.0 °F 57% 30.01 in 10.0 mi Calm Calm - N/A   Mostly Cloudy
5:47 PM 46.4 °F - 33.8 °F 62% 29.99 in 10.0 mi Calm Calm - N/A   Mostly Cloudy
6:47 PM 46.4 °F 44.3 °F 33.8 °F 62% 30.00 in 10.0 mi WNW 4.6 mph - N/A   Overcast
7:47 PM 44.6 °F 42.2 °F 35.6 °F 71% 30.00 in 10.0 mi NW 4.6 mph - N/A   Overcast
8:47 PM 42.8 °F - 35.6 °F 76% 29.99 in 10.0 mi Calm Calm - N/A   Overcast
9:47 PM 42.8 °F - 35.6 °F 76% 29.99 in 10.0 mi North - - N/A   Overcast
10:15 PM 41.0 °F 39.0 °F 35.6 °F 81% 29.98 in 10.0 mi North 3.5 mph - N/A   Light Drizzle
10:35 PM 41.0 °F 38.0 °F 35.6 °F 81% 29.98 in 10.0 mi WNW 4.6 mph - N/A Rain Light Rain
10:47 PM 41.0 °F - 37.4 °F 87% 29.97 in 10.0 mi Calm Calm - N/A Rain Light Rain
10:55 PM 41.0 °F 39.0 °F 35.6 °F 81% 29.97 in 7.0 mi NW 3.5 mph - N/A Rain Rain
11:15 PM 39.2 °F 34.2 °F 35.6 °F 87% 29.97 in 5.0 mi NNW 6.9 mph - N/A Rain Light Rain
11:35 PM 39.2 °F 33.6 °F 37.4 °F 93% 29.98 in 2.5 mi NNE 8.1 mph - N/A Rain Rain
11:55 PM 39.2 °F 34.2 °F 37.4 °F 93% 29.99 in 2.5 mi NNW 6.9 mph - N/A Rain Rain